Regional Weather Roundup
Issued by NWS

Home | Current Version | Previous Version | Text Only | Print | Product List | Glossary Off
Versions: 1 2 3 4 5 6 7 8 9 10 11 12 13 14 15 16 17 18 19 20 21 22 23 24 25 26 27 28 29 30 31 32 33 34 35 36 37 38 39 40 41 42 43 44 45 46 47 48 49 50

000
ASUS43 KMKX 030211
RWRWI

WISCONSIN REGIONAL WEATHER ROUNDUP
NATIONAL WEATHER SERVICE MILWAUKEE/SULLIVAN WI
900 PM CDT SUN AUG 02 2015

NOTE: "FAIR" INDICATES FEW OR NO CLOUDS BELOW 12,000 FEET WITH NO
SIGNIFICANT WEATHER AND/OR OBSTRUCTIONS TO VISIBILITY.

WIZ001-002-006>008-014>016-023>028-030300-
NORTHWEST WISCONSIN

CITY           SKY/WX    TMP DP  RH WIND       PRES   REMARKS
SUPERIOR ARPT  CLEAR     65  49  55 W7        29.73S
ASHLAND        CLEAR     63  49  60 NW6       29.72R
HAYWARD        PTCLDY    69  48  47 VRB5      29.75R
SIREN          CLEAR     66  47  51 NW6       29.78R
CUMBERLAND     CLEAR     66  50  55 NW9       29.77R
RICE LAKE      CLEAR     68  51  54 NW7       29.77R
CHETEK         PTCLDY    70  55  57 W5        29.75R
LADYSMITH      PTCLDY    68  58  70 NW5       29.75R
EAU CLAIRE     CLEAR     71  56  58 NW8       29.72R
MENOMONIE      PTCLDY    73  56  55 NW7       29.74R
NEW RICHMOND   PTCLDY    69  53  58 NW8       29.77R
OSCEOLA        CLEAR     70  53  54 NW9       29.80R
$$

WIZ003>005-009-010-017-018-030300-
NORTH CENTRAL WISCONSIN

CITY           SKY/WX    TMP DP  RH WIND       PRES   REMARKS
MANITOWISH WTR CLEAR     60  59  97 CALM      29.72R
ARBOR VITAE    CLEAR     62  59  89 CALM      29.72R
WOODRUFF       CLEAR     62  59  89 CALM      29.72R
RHINELANDER    PTCLDY    61  58  90 W6        29.73R
EAGLE RIVER    CLEAR     62  52  70 NW5       29.71R
LAND O LAKES   CLEAR     63  54  73 W3        29.72R
PHILLIPS       MOCLDY    64  56  75 CALM      29.73R
TOMAHAWK       MOCLDY    64  57  76 NW3       29.73R
MEDFORD        PTCLDY    67  57  69 N8        29.73R
MERRILL        NOT AVBL
$$

WIZ029-030-035-036-043>047-030300-
CENTRAL WISCONSIN

CITY           SKY/WX    TMP DP  RH WIND       PRES   REMARKS
WAUSAU         CLEAR     72  58  61 NW7       29.68R
MOSINEE        NOT AVBL
MARSHFIELD     CLEAR     68  57  68 NW7       29.71R
STEVENS POINT  PTCLDY    70  58  66 NW3       29.70R
WAUPACA        PTCLDY    71  67  86 NE3       29.68R
WAUTOMA        CLEAR     73  62  68 NW3       29.69R
WISC RAPIDS    PTCLDY    71  58  63 NW6       29.70R
CAMP DOUGLAS   CLEAR     70  64  81 NW9       29.70R
$$

WIZ011>013-019>022-031-037>040-048>050-030300-
NORTHEAST WISCONSIN

CITY           SKY/WX    TMP DP  RH WIND       PRES   REMARKS
ANTIGO         CLOUDY    65  58  79 NW6       29.71R
SHAWANO        CLEAR     64  62  92 CALM      29.67R FOG
OCONTO         MOCLDY    61  61 100 CALM      29.65R
STURGEON BAY   MOCLDY    63  57  82 CALM      29.68R
GREEN BAY      MOCLDY    65  64  97 W6        29.66R
MANITOWOC      CLOUDY    67  63  87 MISG      29.65S
APPLETON       PTCLDY    68  57  68 CALM      29.68R
CLINTONVILLE   CLEAR     64  63  94 CALM      29.67R
OSHKOSH        PTCLDY    68  62  81 CALM      29.66S
$$

WIZ032>034-041-042-053>061-030300-
SOUTHWEST WISCONSIN

CITY           SKY/WX    TMP DP  RH WIND       PRES   REMARKS
LA CROSSE      MOCLDY    77  63  61 NW6       29.70R
SPARTA         CLEAR     75  57  53 NW5       29.72R
VIROQUA        MOCLDY    72  63  72 NW3       29.74R
BOSCOBEL       MOCLDY    80  61  52 NW3       29.70R HX  81
PRAIRIE DU CHI MOCLDY    81  61  50 W7        29.71R HX  81
PLATTEVILLE    CLEAR     78  63  61 W8        29.71R
$$

WIZ056-057-062-063-064-067-068-030300-
SOUTH CENTRAL WISCONSIN

CITY           SKY/WX    TMP DP  RH WIND       PRES   REMARKS
REEDSBURG      CLEAR     76  62  60 NW3       29.70R
BARABOO/DELLS  CLEAR     77  58  52 NW6       29.71R
LONE ROCK      CLEAR     81  62  52 NW12G21   29.70R HX  82
MINERAL POINT  PTCLDY    79  59  50 W7        29.72R HX  80
MADISON        MOCLDY    81  61  50 NW15G24   29.67R HX  82
MIDDLETON      MOCLDY    81  58  45 NW14G24   29.69R HX  81
WATERTOWN      CLOUDY    73  65  76 N8        29.66R
MONROE         PTCLDY    81  66  61 W14       29.68R HX  83
JANESVILLE     PTCLDY    84  68  58 W13       29.63S HX  87
$$

WIZ051-052-058>065-066-070>072-030300-
SOUTHEAST WISCONSIN

CITY           SKY/WX    TMP DP  RH WIND       PRES   REMARKS
MILWAUKEE      CLOUDY    68  65  90 E7        29.66S THUNDER
WAUKESHA       PTCLDY    72  63  73 N14G26    29.67R
MILWAUKEE/TIMM LGT RAIN  70  63  78 N8        29.66R
RACINE         TSTM      68  65  90 NW7       29.65R FOG
BURLINGTON     LGT RAIN  76  65  69 NE10G17   29.66R
KENOSHA        TSTM      72  67  84 N24G36    29.66R
FOND DU LAC    PTCLDY    70  63  78 N3        29.67R
SHEBOYGAN      CLOUDY    66  62  87 MISG      29.65S
WEST BEND      MOCLDY    64  61  88 NW6       29.68R
JUNEAU         PTCLDY    68  64  85 N8        29.68R
$$

LSZ147-162-030300-
LAKE SUPERIOR

STATION/POSITION TIME  TEMP    WIND        PRES    WAVE
                       AIR SEA DIR/SP/G            HT/PER
                 (UTC) (F)     (DEG/KT/KT) (MB)    (FT/S)
W MID LAKE BUOY  0150   60 55  290/ 10/ 12 1004.1R   1/ 3
DEVILS ISLAND    0200   64     290/ 14/ 16 1005.4R
PORT WING        0100   67     310/ 11/ 15 1006.1R
SAXON HARBOR     0140   69                 1005.4R
$$

LMZ867-665-643>646-030300-
LAKE MICHIGAN

STATION/POSITION TIME  TEMP    WIND        PRES    WAVE
                       AIR SEA DIR/SP/G            HT/PER
                 (UTC) (F)     (DEG/KT/KT) (MB)    (FT/S)
CHAMBERS ISLAND  0100   66     240/  3/  6 1003.4R
S GREEN BAY BUOY 0200   67 70  270/  8/ 10 1005.7R
N MID LAKE BUOY  0150   67 68  290/  8/ 10 1002.9R   2/ 5
NORTHPORT PIER   0100   66     280/  3/  6 1003.0R
ALGOMA LAKESHORE 0112           CALM  /  3   N/A
KEWAUNEE LAKESHO 0100   66     290/  4/  7 1002.8R
SHEBOYGAN LAKESH 0200   68     320/  9/ 11 1004.4R
PORT WASHINGTON  0121   69      CALM  / 14 1005.1R
ATWATER BUOY     0200   61 45   50/  8/  8 1005.4R
MILWAUKEE LAKESH 0100          340/  7/ 11   N/A
KENOSHA   LAKESH 0200          340/ 26/ 34 1004.4R
$$

TC  - TEMPERATURE IN CELSIUS
VSB - VISIBILITY IN STATUTE MILES
WCI - WIND CHILL INDEX
HX  - HEAT INDEX




USA.gov is the U.S. government's official web portal to all federal, state and local government web resources and services.